STARLINK-36865, 67930

Orbit data source: Space-Track

STARLINK-36865, 67930 is a payload satellite owned by SpaceX/Seattle (US) in LEO that was launched on Sun, 22 Feb 2026 UTC via an FALCON 9 launch vehicle from the Air Force Eastern Test Range (AFETR). Payload-class satellites include a variety of spacecraft equipped with specific instruments for various scientific and technological missions. These include communications satellites like Starlink; space stations such as the ISS; scientific satellites like the Hubble; Earth observation satellites from companies like Planet Labs, Umbra, and HawkEye 360; GPS; miniature CubeSats for education and research; and military/defense satellites.

Loading next visibility...
Identifier
67930, 2026-036AC
Orbit
LEO
Country
Flag of USUS
Related business
Manufacturer
SpaceX/Seattle
Mission
Operational spacecraft
Bus & Motor
STARLINK V2MO, Unknown motor
Mass
575 kg wet, ~530 kg dry
Launch date (UTC)
2026-02-22 (2 months ago)
Launch vehicle
FALCON 9
Launch site
Air Force Eastern Test Range (AFETR)
Object type
Payload
Rocket body
Debris
Shape & HBR
Unknown shape, 17.7 m
Radar Cross Section
RCS unknown

Expand to show TLE details & history
Last TLE update: 4 hours ago

TLE from 4 hours ago
0 STARLINK-36865
1 67930U 26036AC  26104.50946102  .00007526  00000-0  28272-3 0  9996
2 67930  43.0006  42.6606 0001321 264.2027  95.8674 15.27582357  9209
Epoch: 2026-04-14T12:13Z
TLE epoch observation values (Epoch: 2026-04-14T12:13:37.432Z)
Latitude
-0.00001°
Longitude
16.56994°
Altitude
482.91 km
Speed
7.626 km/s
True Right ascension
02h 50m 38s
True Declination
0° 00' 00"
Sunlit
Object was in daylight at epoch
Visualization orbit readout
Latitude
Unknown
Longitude
Unknown
Altitude
Unknown
Speed
Unknown
Apparent Right ascension
Unknown
Apparent Declination
Unknown
Sunlit
N/A
Visualization observer readout
Local Sidereal Time
23:07:11
Azimuth
Unknown
Elevation
Unknown
Doppler factor
Unknown
Orbital elements
Apogee altitude
485.894 km
Perigee altitude
484.08 km
Semi-major axis
6,863.124 km
Eccentricity
0.00013
Inclination
43.0006°
RAAN
42.6606°
Arg. of periapsis
264.2027°
True anomaly
95.88246°
Mean anomaly
95.8674°
Eccentric anomaly
95.87493°
Mean motion
3.81734 °/min
Orbital period
94.31 mins
BSTAR
0.00028272
Loading maneuver chart data...
Computing Atmospheric mass density...
Loading historical data...
Loading historical data...
Loading historical data...
Loading historical data...
Loading historical data...
Loading historical data...
Loading historical data...

Documentation

Showing up to 5 results
|